Find Starlink 36089

NORAD ID: 66947 Int'l Des: 2025-286 Owner: SPXS Country: US Constellation: starlink operational
LEOCIRCULAR

Aktuelle Ansicht

3D-Globus wird geladen...

Über Starlink 36089

Beschreibung wird geladen...

Nächste Überflüge

Passes for default location (London). Set your location on the main map for personalized predictions.

Höhenverlauf

Loading altitude history...

Zweizeiliger Elementsatz

1 66947U 25286Y 26146.31035377 .00032107 00000-0 95708-3 0 9998
2 66947 53.1615 357.7078 0000987 90.1506 269.9610 15.34407801 27305
Epoch: 26. Mai 2026 • Age: 15 hours

Aktueller Status

Höhe 465.7 km
Geschwindigkeit 7.64 km/s
Subsatellitenpunkt 40.50°N, 80.1°W
Startdatum 7. Dez. 2025
Alter 0.4 years
Typ internet

Technische Details

Klassifizierung Payload
Masse 575.00 kg
Trockenmasse 530.00 kg
Gesamtmasse 575.00 kg
Länge 0.30 m
Durchmesser 4.10 m
Spannweite 29.00 m
Form Box + pan
Hersteller SPXS
Bus-Typ Starlink V2MO
Phasenstatus In Orbit
Besitzer/Staat SPXS/US

Most Searched